NOAA 16 DEB, 41408

Orbit data source: Space-Track

NOAA 16 DEB, 41408 is space debris in SSO originally from a launch on Thu, 21 Sep 2000 UTC launched from the Air Force Western Test Range (AFWTR). Debris objects in space refer to the collection of defunct objects orbiting the Earth. Examples of debris include non-operational satellites, rocket bodies, and fragments generated from explosions, collisions, or faulty payload assembly.

Loading next visibility...
Identifier
41408, 2000-055KM
Orbit
SSO
Last TLE update
2 days ago
Origin
Manufacturer
Unknown
Mission
Spacecraft
Bus & Motor
Unknown
Mass
Unknown
Launch date (UTC)
2000-09-21 (25 years ago)
Launch vehicle
Unknown
Launch site
Air Force Western Test Range (AFWTR)
Object type
Payload
Rocket body
Debris
Shape & HBR
Unknown
Radar Cross Section
Small (<0.1 m²)

Expand to show TLE details & history

TLE from 2 days ago
0 NOAA 16 DEB
1 41408U 00055KM  25187.46293908  .00003308  00000-0  12816-2 0  9995
2 41408  98.7300 278.0173 0012467 173.2596 186.8756 14.30648796485744
Epoch: 2025-07-06T11:06Z
TLE epoch observation values (Epoch: 2025-07-06T11:06:37.936Z)
Latitude
-0.00004°
Longitude
-173.32703°
Altitude
801.365 km
Speed
7.448 km/s
True Right ascension
18h 32m 04s
True Declination
0° 00' 00"
Sunlit
Object was in full shadow at epoch
Visualization orbit readout
Latitude
52.4771°
Longitude
19.99481°
Altitude
791.285 km
Speed
7.467 km/s
Apparent Right ascension
07h 25m 44s
Apparent Declination
9° 44' 29"
Sunlit
Object is in daylight
Visualization observer readout
Local Sidereal Time
19:26:05
Azimuth
0.112° NNE
Elevation
-40.343°
Doppler factor
1
Orbital elements
Apogee altitude
795.641 km
Perigee altitude
777.776 km
Semi-major axis
7,164.845 km
Eccentricity
0.00125
Inclination
98.73°
RAAN
278.0173°
Arg. of periapsis
173.2596°
True anomaly
Unknown
Mean anomaly
186.8756°
Eccentric anomaly
Unknown
Mean motion
3.57876 °/min
Orbital period
100.59 mins
BSTAR
0.0012816
Loading maneuver chart data...
Loading SW <> Apogee altitude chart data...
Loading historical data...
Loading historical data...
Loading historical data...
Loading historical data...
Loading historical data...
Loading historical data...
Loading historical data...

NOAA 16 DEB Visibility forecast

Observer location: undefined°, undefined°

Span
Click to sort rows by Start time (UTC) header in descending order
Start Az.
Max El. time (UTC)
Max El. Az.
Max El.
End time (UTC)
End Az.
8 mins2025-07-08 19:05:33.003Z9.954° NNE2025-07-08 19:08:33.003Z342.963° N43.636°2025-07-08 19:13:33.003Z199.459° SSW
4 mins2025-07-09 04:45:33.003Z84.945° E2025-07-09 04:47:33.003Z56.5° ENE17.266°2025-07-09 04:49:33.003Z30.598° NE
8 mins2025-07-09 06:22:33.003Z185.863° SSW2025-07-09 06:26:33.003Z280.481° WNW39.221°2025-07-09 06:30:33.003Z335.84° NNW
|